Weather History for Taunton, MA

Change the Weather History Date:

Wednesday, December 5, 2012

  Actual Average Record
Temperature  
Mean Temperature 48 °F -  
Max Temperature 59 °F 42 °F 68 °F (2001)
Min Temperature 36 °F 22 °F 7 °F (1966)
Degree Days  
Heating Degree Days 17    
Moisture  
Dew Point 39 °F    
Average Humidity 65    
Maximum Humidity 89    
Minimum Humidity 41    
Precipitation  
Precipitation 0.05 in - - ()
Sea Level Pressure  
Sea Level Pressure 29.95 in    
Wind  
Wind Speed 10 mph (West)    
Max Wind Speed 17 mph    
Max Gust Speed 28 mph    
Visibility 10 miles    
Events Rain    
Averages and records for this station are not official NWS values.
T = Trace of Precipitation, MM = Missing Value Source: NWS Daily Summary

Daily Weather History Graph

Daily Weather History Graph

Search for Another Location

Airport:

Trip Planner

Search our weather history database for the weather conditions in past years. The results will help you decide how hot, cold, wet, or windy it might be!

Date:

Astronomy

Dec. 05, 2012 Rise Set
Actual Time 6:56 AM EST 4:13 PM EST
Civil Twilight 6:25 AM EST 4:44 PM EST
Nautical Twilight 5:50 AM EST 5:19 PM EST
Astronomical Twilight 5:16 AM EST 5:52 PM EST
Moon 11:04 PM EST (12/5) 11:14 AM EST (12/5)
Length of Visible Light 10h 19m
Length of Day
9h 16m
Waning Gibbous, 60% of the Moon is Illuminated
Dec 5
Waning Gibbous
Dec 6
Last Quarter
Dec 13
New
Dec 20
First Quarter
Dec 28
Full

Hourly Weather History & Observations

Time (EST) Temp. Windchill Dew Point Humidity Pressure Visibility Wind Dir Wind Speed Gust Speed Precip Events Conditions
12:52 AM 59.0 °F - 55.0 °F 87% 29.99 in 10.0 mi SSW 6.9 mph 16.1 mph N/A   Overcast
1:52 AM 59.0 °F - 55.0 °F 87% 29.96 in 9.0 mi SSW 12.7 mph 20.7 mph N/A   Overcast
2:06 AM 59.0 °F - 55.0 °F 87% 29.95 in 9.0 mi SSW 12.7 mph 23.0 mph N/A   Overcast
2:18 AM 59.0 °F - 55.0 °F 87% 29.94 in 9.0 mi SSW 6.9 mph 20.7 mph N/A   Overcast
2:52 AM 59.0 °F - 54.0 °F 83% 29.92 in 10.0 mi SSW 8.1 mph 18.4 mph N/A   Overcast
3:52 AM 59.0 °F - 54.0 °F 83% 29.88 in 10.0 mi SSW 10.4 mph 23.0 mph N/A   Overcast
4:42 AM 57.9 °F - 53.1 °F 84% 29.87 in 10.0 mi SSW 10.4 mph - N/A   Overcast
4:52 AM 57.9 °F - 53.1 °F 84% 29.86 in 10.0 mi SSW 12.7 mph 24.2 mph N/A   Overcast
5:52 AM 55.9 °F - 52.0 °F 87% 29.88 in 6.0 mi WSW 5.8 mph - 0.02 in Rain Light Rain
6:09 AM 55.9 °F - 52.0 °F 87% 29.89 in 9.0 mi SW 4.6 mph - 0.00 in   Overcast
6:49 AM 55.4 °F - 51.8 °F 88% 29.88 in 9.0 mi SW 5.8 mph - 0.00 in Rain Light Rain
6:52 AM 55.0 °F - 52.0 °F 89% 29.88 in 9.0 mi SW 4.6 mph - 0.00 in Rain Light Rain
7:52 AM 55.0 °F - 51.1 °F 86% 29.90 in 7.0 mi West 5.8 mph - 0.03 in Rain Light Rain
9:52 AM 54.0 °F - 42.1 °F 64% 29.94 in 10.0 mi WNW 8.1 mph - N/A   Scattered Clouds
10:52 AM 55.9 °F - 36.0 °F 47% 29.92 in 10.0 mi WNW 12.7 mph 19.6 mph N/A   Clear
11:52 AM 55.9 °F - 35.1 °F 45% 29.90 in 10.0 mi West 10.4 mph 19.6 mph N/A   Clear
12:52 PM 55.0 °F - 33.1 °F 43% 29.90 in 10.0 mi WNW 8.1 mph 17.3 mph N/A   Clear
1:52 PM 53.1 °F - 32.0 °F 45% 29.90 in 10.0 mi NW 11.5 mph 16.1 mph N/A   Clear
2:52 PM 52.0 °F - 33.1 °F 49% 29.91 in 10.0 mi WNW 10.4 mph 21.9 mph N/A   Partly Cloudy
3:52 PM 51.1 °F - 30.9 °F 46% 29.93 in 10.0 mi WNW 5.8 mph - N/A   Clear
4:52 PM 46.0 °F 39.0 °F 26.1 °F 46% 29.97 in 10.0 mi West 17.3 mph 27.6 mph N/A   Clear
5:52 PM 42.1 °F 35.2 °F 24.1 °F 49% 30.01 in 10.0 mi West 12.7 mph 20.7 mph N/A   Clear
6:52 PM 42.1 °F 36.6 °F 24.1 °F 49% 30.04 in 10.0 mi West 9.2 mph - N/A   Mostly Cloudy
7:52 PM 42.1 °F 34.5 °F 19.9 °F 41% 30.05 in 10.0 mi NNW 15.0 mph 23.0 mph N/A   Overcast
8:52 PM 41.0 °F 34.3 °F 19.9 °F 43% 30.06 in 10.0 mi NW 11.5 mph 21.9 mph N/A   Overcast
9:52 PM 39.9 °F 32.9 °F 18.0 °F 41% 30.08 in 10.0 mi NW 11.5 mph 24.2 mph N/A   Overcast
10:52 PM 37.9 °F 29.2 °F 18.0 °F 45% 30.10 in 10.0 mi NW 15.0 mph 23.0 mph N/A   Overcast
11:52 PM 36.0 °F 26.7 °F 17.1 °F 46% 30.12 in 10.0 mi NW 15.0 mph 23.0 mph N/A   Mostly Cloudy